Probability
0 0 0 0 0 0 0 0 0 0 0 0 0 0 0 0 0 0 0 0 0 0 0 0 0 0 0 0 0 0 0 0 0 0 0 0 0 0 0 0 0 0 0
0 0 0 0 0 0 0 0 0 0 0 0 0 0 0 0 0 0 0 0 0 0 0 0 0 0 0 0 0 0 0 0 0 0 0 0 0 0 0 0 0 0 0
0 0 0 0 0 0 0 0 0 0 0 0 0 0 0 0 0 0 0 0 0 0 0 0 0 0 0 0 0 0 0 0 0 0 0 0 0 0 0 0 0 0 0
0 0 0 0 0 0 0 0 0 0 0 0 0 0 0 0 0 0 0 0 0 0 0 0 0 0 0 0 0 0 0 0 0 0 0 0 0 0 0 0 0 0 0
0 0 0 0 0 0 0 0 0 0 0 0 0 0 0 0 0 0 0 0 0 0 0 0 0 0 0 0 0 0 0 0 0 0 0 0 0 0 0 0 0 0 0
0 0 0 0 0 0 0 0 0 0 0 0 0 0 0 0 0 0 0 0 0 0 0 0 0 0 0 0 0 0 0 0 0 0 0 0 0 0 0 0 0 0 0
0 0 0 0 0 0 0 0 0 0 0 0 0 0 0 0 0 0 0 0 0 0 0 0 0 0 0 0 0 0 0 0 0 0 0 0 0 0 0 0 0 0 0
0 0 0 0 0 0 0 0 0 0 0 0 0 0 0 0 0 0 0 0 0 0 0 0 0 0 0 0 0 0 0 0 0 0 0 0 0 0 0 0 0 0 0
0 0 0 0 0 0 0 0 0 0 0 0 0 0 0 0 0 0 0 0 0 0 0 0 0 0 0 0 0 0 0 0 0 0 0 0 0 0 0 0 0 0 0
0 0 0 0 0 0 0 0 0 0 0 0 0 0 0 0 0 0 0 0 0 0 0 0 0 0 0 0 0 0 0 0 0 0 0 0 0 0 0 0 0 0 0
0 0 0 0 0 0 0 0 0 0 0 0 0 0 0 0 0 0 0 0 0 0 0 0 0 0 0 0 0 0 0 0 0 0 0 0 0 0 0 0 0 0 0
0 0 0 0 0 0 0 0 0 0 0 0 0 0 0 0 0 0 0 0 0 0 0 0 0 0 0 0 0 0 0 0 0 0 0 0 0 0 0 0 0 0 0
0 0 0 0 0 0 0 0 0 0 0 0 0 0 0 0 0 0 0 0 0 0 0 0 0 0 0 0 0 0 0 0 0 0 0 0 0 0 0 0 0 0 0
0 0 0 0 0 0 0 0 0 0 0 0 0 0 0 0 0 0 0 0 0 0 0 0 0 0 0 0 0 0 0 0 0 0 0 0 0 0 0 0 0 0 0
0 0 0 0 0 0 0 0 0 0 0 0 0 0 0 0 0 0 0 0 0 0 0 0 0 0 0 0 0 0 0 0 0 0 0 0 0 0 0 0 0 0 0
0 0 0 0 0 0 0 0 0 0 0 0 0 0 0 0 0 0 0 0 0 0 0 0 0 0 0 0 0 0 0 0 0 0 0 0 0 0 0 0 0 0 0
0 0 0 0 0 0 0 0 0 0 0 0 0 0 0 0 0 0 0 0 0 0 0 0 0 0 0 0 0 0 0 0 0 0 0 0 0 0 0 0 0 0 0
0 0 0 0 0 0 0 0 0 0 0 0 0 0 0 0 0 0 0 0 0 0 0 0 0 0 0 0 0 0 0 0 0 0 0 0 0 0 0 0 0 0 0
0 0 0 0 0 0 0 0 0 0 0 0 0 0 0 0 0 0 0 0 0 0 0 0 0 0 0 0 0 0 0 0 0 0 0 0 0 0 0 0 0 0 0
0 0 0 0 0 0 0 0 0 0 0 0 0 0 0 0 0 0 0 0 0 0 0 0 0 0 0 0 0 0 0 0 0 0 0 0 0 0 0 0 0 0 0
0 0 0 0 0 0 0 0 0 0 0 0 0 0 0 0 0 0 0 0 0 0 0 0 0 0 0 0 0 0 0 0 0 0 0 0 0 0 0 0 0 0 0
0 0 0 0 0 0 0 0 0 0 0 0 0 0 0 0 0 0 0 0 0 0 0 0 0 0 0 0 0 0 0 0 0 0 0 0 0 0 0 0 0 0 0
0 0 0 0 0 0 0 0 0 0 0 0 0 0 0 0 0 0 0 0 0 0 0 0 0 0 0 0 0 0 0 0 0 0 0 0 0 0 0 0 0 0 0
0 0 0 0 0 0 0 0 0 0 0 0 0 0 0 0 0 0 0 0 0 0 0 0 0 0 0 0 0 0 0 0 0 0 0 0 0 0 0 0 0 0 0
0 0 0 0 0 0 0 0 0 0 0 0 0 0 0 0 0 0 0 0 0 0 0 0 0 0 0 0 0 0 0 0 0 0 0 0 0 0 0 0 0 0 0
0 0 0 0 0 0 0 0 0 0 0 0 0 0 0 0 0 0 0 0 0 0 0 0 0 0 0 0 0 0 0 0 0 0 0 0 0 0 0 0 0 0 0
Wind_Speed
9 10 12 12 11 11 11 13 13 12 14 17 18 17 17 17 15 15 13 14 14 12 10 11 10 8 7 6 5 5 5 5 5 3 3 2 2 4 6 6 7 8 9
8 9 11 10 10 12 14 13 13 15 16 17 17 18 18 18 17 18 17 16 16 16 14 13 12 9 10 8 7 7 7 6 6 5 3 3 5 4 6 8 8 8 8
8 9 10 10 12 15 16 14 14 15 16 16 18 20 20 19 19 18 17 17 17 16 16 16 14 13 12 8 9 8 7 6 6 5 4 4 5 6 6 7 8 7 8
11 9 11 12 14 15 13 13 14 15 16 18 19 19 19 19 19 18 18 17 16 15 15 15 14 15 14 13 10 10 8 7 7 6 5 5 5 6 5 5 5 4 6
15 12 12 11 10 11 11 12 13 14 16 16 16 16 16 16 17 19 18 17 17 15 14 14 14 13 17 14 10 10 10 8 6 6 5 4 5 4 3 3 7 6 7
16 15 13 11 9 9 10 10 12 14 13 14 16 17 18 16 24 30 21 17 17 17 16 14 13 14 16 21 19 17 15 10 8 6 5 6 5 4 4 6 8 9 5
14 14 14 13 11 9 8 9 13 13 13 15 16 16 18 20 28 31 29 17 17 16 16 15 12 12 14 12 16 20 18 19 16 9 7 7 5 4 6 8 9 10 10
13 14 14 14 13 10 8 9 10 10 12 14 15 16 15 18 28 30 30 17 14 15 16 16 16 16 16 15 12 10 8 8 9 6 5 5 5 6 8 9 11 10 11
13 14 14 14 14 11 10 9 8 8 11 12 11 13 15 16 27 29 29 12 12 14 13 14 15 15 22 23 14 11 9 8 12 14 13 12 13 14 11 6 5 6 8
14 15 13 13 13 12 11 9 6 7 9 8 9 11 13 12 23 30 30 12 12 11 11 12 15 16 23 25 15 13 12 10 8 7 7 8 6 8 12 7 5 5 5
14 15 14 12 12 11 10 7 5 5 6 7 8 7 9 11 20 29 30 13 13 13 12 11 13 23 24 24 18 11 12 10 7 5 3 3 3 4 5 6 6 6 7
14 16 15 13 11 9 9 7 6 6 7 7 6 7 6 8 13 24 31 23 18 12 11 10 12 25 24 23 17 16 17 10 5 4 2 3 3 4 4 5 8 9 11
15 16 16 15 12 9 9 8 6 7 7 7 7 8 7 7 11 23 28 28 24 11 8 15 18 24 23 17 18 17 9 5 5 4 3 3 3 4 5 6 7 9 12
15 17 15 16 14 11 9 8 8 9 9 9 9 9 8 9 9 10 11 16 20 15 11 13 20 22 16 10 8 8 5 5 5 4 4 3 3 4 5 5 6 7 9
16 17 16 14 15 12 10 10 11 11 12 12 11 11 11 12 16 21 16 14 13 13 13 9 7 9 9 7 6 5 5 5 5 4 3 3 3 4 5 5 5 6 9
17 16 13 12 12 12 12 11 19 20 21 25 21 16 13 16 20 27 29 27 27 28 19 13 12 11 10 9 8 7 6 5 5 4 3 3 3 4 5 5 6 7 9
18 17 14 13 13 13 12 12 11 13 22 25 26 25 20 19 22 27 29 29 29 30 14 12 12 11 10 9 8 7 6 6 4 3 3 3 3 4 5 6 7 8 9
18 17 16 14 13 13 13 13 11 10 9 10 17 24 24 22 23 25 28 25 20 20 11 11 11 10 9 8 8 7 6 6 4 3 3 2 3 4 6 7 7 9 11
17 15 13 13 13 13 13 13 11 11 10 7 5 10 18 21 23 25 26 15 13 13 11 10 10 9 9 8 7 6 6 5 4 3 2 3 4 4 6 7 9 11 11
16 20 18 14 13 13 13 13 10 9 9 8 8 7 8 10 10 14 15 11 10 10 10 10 9 9 8 8 7 6 5 4 4 3 3 4 4 5 7 9 9 10 10
15 15 18 15 13 13 13 11 9 9 8 8 7 9 16 10 9 10 10 9 9 10 10 9 9 9 8 7 6 6 6 4 4 4 4 4 4 5 6 8 10 10 10
14 13 12 12 12 12 12 9 9 8 8 7 5 9 18 8 7 7 8 8 8 8 8 8 8 7 7 7 7 6 5 5 4 4 4 4 4 5 7 8 9 10 10
13 13 12 11 11 12 10 8 7 6 6 6 6 4 5 6 8 9 10 9 9 8 7 7 8 6 5 4 4 5 5 5 5 5 5 4 5 6 7 9 10 11 11
9 9 9 8 7 6 5 5 4 5 5 6 6 6 7 9 10 11 10 9 9 8 7 6 6 8 8 6 4 4 4 4 4 5 7 6 7 7 8 8 9 11 11
7 4 1 0 2 3 4 5 5 6 7 8 8 9 9 10 10 10 9 9 10 8 8 6 5 5 7 7 6 5 7 9 8 6 6 7 9 10 9 9 9 10 11
10 8 7 6 6 6 6 7 7 8 9 9 9 9 9 9 9 9 8 8 8 7 6 4 5 5 5 5 6 8 9 10 10 11 9 8 9 8 8 7 9 9 11
Wind_Direction
229 222 221 217 211 206 206 204 197 186 181 182 184 185 186 187 185 187 188 181 184 183 180 182 182 169 172 172 168 174 179 169 199 234 250 247 275 281 297 294 293 293 295
258 237 229 222 210 210 213 206 197 193 188 185 182 185 188 189 189 190 190 186 187 186 185 182 182 175 177 176 178 184 185 182 187 210 225 234 241 255 268 272 281 282 282
285 255 240 227 218 219 218 209 201 197 192 187 185 188 190 190 191 193 191 189 191 189 185 184 182 177 182 179 180 184 185 189 190 200 217 222 243 243 249 255 256 257 263
315 281 255 239 230 227 222 213 206 201 196 194 193 192 190 189 190 191 190 190 190 189 186 184 180 182 183 178 181 185 183 189 194 205 220 231 242 242 245 257 278 251 265
329 310 282 263 246 234 223 214 207 204 203 198 195 194 191 190 191 190 189 188 186 185 183 184 182 181 183 179 179 181 182 188 190 199 215 228 243 255 271 283 299 298 274
335 327 315 295 270 247 231 216 209 207 202 197 198 196 195 198 198 194 186 185 185 184 182 181 178 176 185 188 191 189 188 186 189 193 210 231 254 268 288 301 309 315 309
337 334 330 320 297 272 245 221 214 208 201 202 202 200 203 204 199 196 192 182 185 186 182 177 177 179 180 183 195 199 203 210 207 195 210 232 253 268 290 295 293 295 291
335 338 336 330 316 297 267 239 223 208 205 206 205 204 204 205 201 197 192 185 186 185 183 179 177 175 181 178 183 192 202 217 227 228 226 237 244 256 261 275 289 294 291
333 335 334 329 320 310 285 262 237 215 211 209 204 203 204 204 202 196 187 177 184 184 182 179 177 173 182 179 177 185 197 215 228 227 230 242 257 273 282 290 294 298 295
328 325 323 321 316 308 295 278 254 230 219 207 207 203 202 199 202 196 184 175 179 177 177 180 179 176 181 181 176 181 193 200 202 218 236 258 274 283 286 277 268 269 279
320 317 314 311 308 302 294 278 256 234 215 207 204 198 198 196 207 199 187 176 178 175 177 179 184 184 186 188 183 186 198 191 193 188 194 228 259 266 266 258 252 249 257
315 313 311 307 301 294 284 272 248 225 215 209 198 195 195 193 209 206 194 183 180 178 179 178 184 185 186 190 189 191 201 192 149 146 173 235 249 254 260 264 266 264 262
312 309 308 305 296 282 270 260 241 221 217 211 203 203 197 194 210 211 200 188 185 174 174 178 181 184 184 188 192 191 177 151 146 162 195 222 236 260 277 280 279 275 271
305 304 303 302 295 281 262 246 233 222 217 212 209 207 198 193 198 204 197 188 183 174 171 177 180 182 173 157 168 172 150 154 162 175 192 217 250 267 271 275 281 290 285
298 295 295 292 289 281 263 246 235 228 222 214 211 205 197 200 201 197 189 186 175 166 157 155 160 167 161 157 153 151 152 156 165 176 190 213 246 264 272 276 274 282 280
291 290 288 287 287 283 273 263 248 240 236 232 224 214 212 208 200 200 200 192 180 169 161 167 171 174 174 170 167 162 164 168 167 171 188 212 242 264 277 281 279 276 279
278 280 281 279 278 279 273 264 261 250 241 236 232 224 214 207 203 201 201 195 186 173 169 174 175 175 172 167 164 159 157 155 153 168 190 213 244 266 277 282 283 281 281
272 273 272 272 271 271 270 263 253 244 238 233 229 227 218 208 205 202 200 193 190 179 173 175 171 167 163 159 156 151 147 146 153 166 187 216 240 259 270 275 278 278 286
272 270 268 266 265 265 267 263 251 239 234 226 206 219 216 208 202 202 198 195 188 174 165 164 160 157 154 150 146 143 144 148 153 160 194 222 233 243 258 268 276 280 285
268 266 265 264 261 259 260 256 245 234 225 218 211 203 194 191 193 194 195 187 176 162 157 154 151 148 146 144 142 143 146 152 162 181 206 223 233 244 261 269 275 284 290
268 264 259 258 256 253 253 248 238 229 217 212 208 202 198 192 187 184 180 167 156 149 148 145 142 142 139 139 142 149 154 163 175 193 211 226 235 247 260 268 275 283 291
264 259 253 250 249 247 244 233 226 218 205 200 188 206 207 185 167 155 140 128 122 123 131 133 134 136 145 151 153 155 162 178 191 199 214 229 240 253 262 268 275 288 296
263 255 251 245 242 239 230 223 212 197 188 179 169 163 158 131 122 117 112 109 108 110 114 120 125 127 131 140 151 161 173 190 193 192 206 231 247 255 260 269 280 291 297
277 258 246 239 231 219 207 189 171 158 149 137 122 113 108 107 106 107 108 110 109 109 109 114 124 142 150 155 166 184 204 212 204 204 208 226 247 259 263 270 281 289 296
330 332 326 154 132 127 121 116 114 113 110 104 102 101 101 103 105 107 108 109 111 112 116 119 127 145 164 177 188 203 223 233 228 214 213 227 245 254 262 273 283 291 295
9 23 35 46 58 70 81 89 92 93 91 93 97 100 103 104 106 108 110 111 113 116 123 132 154 168 181 196 215 227 236 241 238 230 225 239 247 256 266 275 284 289 293